Weather History for Beaufort, NC

Change the Weather History Date:

Tuesday, February 19, 2013

  Actual Average Record
Temperature  
Mean Temperature 49 °F -  
Max Temperature 61 °F 58 °F 70 °F (1984)
Min Temperature 37 °F 38 °F 17 °F (1958)
Degree Days  
Heating Degree Days 16    
Moisture  
Dew Point 49 °F    
Average Humidity 85    
Maximum Humidity 100    
Minimum Humidity 64    
Precipitation  
Precipitation 0.27 in - - ()
Sea Level Pressure  
Sea Level Pressure 30.04 in    
Wind  
Wind Speed 10 mph (SW)    
Max Wind Speed 21 mph    
Max Gust Speed 33 mph    
Visibility 8 miles    
Events Rain    
Averages and records for this station are not official NWS values.
T = Trace of Precipitation, MM = Missing Value Source: NWS Daily Summary

Daily Weather History Graph

Daily Weather History Graph

Search for Another Location

Airport:

Trip Planner

Search our weather history database for the weather conditions in past years. The results will help you decide how hot, cold, wet, or windy it might be!

Date:

Astronomy

Feb. 19, 2013 Rise Set
Actual Time 6:47 AM EST 5:53 PM EST
Civil Twilight 6:22 AM EST 6:19 PM EST
Nautical Twilight 5:52 AM EST 6:48 PM EST
Astronomical Twilight 5:23 AM EST 7:18 PM EST
Moon 12:30 PM EST (2/19) 2:10 AM EST (2/19)
Length of Visible Light 11h 57m
Length of Day
11h 06m
Waxing Gibbous, 67% of the Moon is Illuminated
Feb 19
Waxing Gibbous
Feb 25
Full
Mar 4
Last Quarter
Mar 11
New
Mar 19
First Quarter

Hourly Weather History & Observations

Time (EST) Temp. Windchill Dew Point Humidity Pressure Visibility Wind Dir Wind Speed Gust Speed Precip Events Conditions
12:58 AM 46.9 °F - 37.9 °F 71% 30.31 in 10.0 mi SSW 4.6 mph - N/A   Clear
1:58 AM 46.9 °F - 39.0 °F 74% 30.29 in 10.0 mi SSW 4.6 mph - N/A   Clear
2:58 AM 37.9 °F - 36.0 °F 93% 30.26 in 10.0 mi Calm Calm - N/A   Clear
4:58 AM 39.0 °F 34.8 °F 37.0 °F 93% 30.22 in 10.0 mi ESE 5.8 mph - N/A   Clear
5:58 AM 45.0 °F 41.8 °F 42.1 °F 90% 30.20 in 10.0 mi SE 5.8 mph - N/A   Clear
6:58 AM 48.0 °F - 42.1 °F 80% 30.18 in 10.0 mi ESE 6.9 mph - N/A   Clear
7:58 AM 54.0 °F - 45.0 °F 72% 30.17 in 10.0 mi SE 6.9 mph - N/A   Scattered Clouds
8:58 AM 59.0 °F - 46.9 °F 64% 30.17 in 10.0 mi SSE 8.1 mph - N/A   Scattered Clouds
9:58 AM 60.1 °F - 52.0 °F 75% 30.15 in 10.0 mi South 11.5 mph - 0.01 in Rain Light Rain
11:58 AM 61.0 °F - 53.1 °F 75% 30.09 in 10.0 mi South 15.0 mph 25.3 mph N/A   Mostly Cloudy
12:58 PM 60.1 °F - 53.1 °F 78% 30.03 in 10.0 mi South 13.8 mph - 0.00 in Rain Light Rain
1:52 PM 57.2 °F - 55.4 °F 94% 30.02 in 2.0 mi WSW 15.0 mph 26.5 mph 0.14 in Rain Heavy Rain
1:58 PM 57.0 °F - 55.0 °F 93% 30.02 in 3.0 mi WSW 18.4 mph 26.5 mph 0.15 in Rain Rain
2:21 PM 55.4 °F - 53.6 °F 94% 30.02 in 2.5 mi SW 18.4 mph 25.3 mph 0.06 in Rain Heavy Rain
2:31 PM 53.6 °F - 53.6 °F 100% 30.00 in 2.5 mi SW 17.3 mph - 0.09 in Rain Heavy Rain
2:41 PM 53.6 °F - 53.6 °F 100% 29.99 in 4.0 mi SSW 13.8 mph - 0.10 in Rain Light Rain
2:58 PM 55.0 °F - 54.0 °F 96% 29.98 in 5.0 mi South 13.8 mph - 0.11 in Rain Light Rain
3:58 PM 57.0 °F - 52.0 °F 83% 29.94 in 9.0 mi SSW 15.0 mph - 0.00 in   Overcast
4:58 PM 57.0 °F - 52.0 °F 83% 29.93 in 9.0 mi SW 16.1 mph - 0.00 in   Overcast
5:58 PM 57.0 °F - 51.1 °F 81% 29.93 in 10.0 mi SW 20.7 mph - N/A   Overcast
7:40 PM 57.2 °F - 51.8 °F 82% 29.92 in 10.0 mi WSW 20.7 mph 33.4 mph N/A   Overcast
8:18 PM 55.4 °F - 53.6 °F 94% 29.92 in 8.0 mi WSW 17.3 mph 25.3 mph N/A   Overcast
8:24 PM 55.4 °F - 53.6 °F 94% 29.92 in 8.0 mi WSW 16.1 mph 24.2 mph N/A   Overcast
8:38 PM 55.4 °F - 53.6 °F 94% 29.91 in 8.0 mi WSW 16.1 mph 23.0 mph N/A   Overcast
8:44 PM 55.4 °F - 53.6 °F 94% 29.91 in 8.0 mi WSW 17.3 mph 23.0 mph N/A   Overcast
8:58 PM 55.9 °F - 53.1 °F 90% 29.91 in 8.0 mi WSW 16.1 mph 21.9 mph N/A   Overcast
9:58 PM 54.0 °F - 52.0 °F 93% 29.93 in 8.0 mi West 11.5 mph - N/A   Clear
10:58 PM 53.1 °F - 45.0 °F 74% 29.94 in 10.0 mi West 19.6 mph 24.2 mph N/A   Scattered Clouds
11:58 PM 51.1 °F - 43.0 °F 74% 29.95 in 10.0 mi West 13.8 mph - N/A   Clear